EW8073 Weather Reports


time (UTC)temp
F
wind
direction
speed
knots
gust
knots
rain 1hr
in
rain 24hr
in
rain mn
in
humidity
%
barometer
mb
20260509224932 77 80 0.9 5.2 0.00 0.00 0.00 20 1011.2
20260509224431 77 84 0.9 5.2 0.00 0.00 0.00 19 1011.2
20260509223931 77 336 0.9 4.3 0.00 0.00 0.00 20 1011.1
20260509223430 77 80 0.9 3.5 0.00 0.00 0.00 20 1011.0
20260509222427 79 84 0.9 4.3 0.00 0.00 0.00 18 1010.9
20260509221925 78 80 0.0 3.5 0.00 0.00 0.00 20 1010.9
20260509221426 79 62 0.0 0.0 0.00 0.00 0.00 19 1011.0
20260509220926 79 48 0.0 0.0 0.00 0.00 0.00 19 1011.0
20260509215926 78 355 0.9 2.6 0.00 0.00 0.00 19 1011.1
20260509214925 79 99 0.0 5.2 0.00 0.00 0.00 20 1011.0
20260509214424 79 71 0.0 0.9 0.00 0.00 0.00 20 1011.1
20260509213923 78 35 0.0 0.0 0.00 0.00 0.00 20 1011.1
20260509213420 78 55 0.0 2.6 0.00 0.00 0.00 19 1011.1
20260509212918 79 82 0.0 2.6 0.00 0.00 0.00 20 1011.2
20260509212416 79 90 0.9 5.2 0.00 0.00 0.00 21 1011.2
20260509211914 78 82 1.7 5.2 0.00 0.00 0.00 21 1011.3
20260509211414 78 108 1.7 6.1 0.00 0.00 0.00 20 1011.5
20260509210414 78 67 0.9 8.7 0.00 0.00 0.00 22 1011.5
20260509205915 78 123 0.9 8.7 0.00 0.00 0.00 21 1011.5
20260509205413 78 92 0.9 5.2 0.00 0.00 0.00 21 1011.5
20260509204908 78 84 0.9 6.1 0.00 0.00 0.00 22 1011.5
20260509204401 78 46 1.7 7.0 0.00 0.00 0.00 22 1011.7
20260509203855 78 295 1.7 7.0 0.00 0.00 0.00 22 1011.9
20260509203350 78 35 0.9 3.5 0.00 0.00 0.00 21 1011.7
20260509202338 77 29 0.9 6.1 0.00 0.00 0.00 21 1011.9
20260509201326 77 80 0.0 6.1 0.00 0.00 0.00 23 1012.2
20260509200820 77 54 0.9 4.3 0.00 0.00 0.00 22 1012.2
20260509200313 77 57 1.7 6.1 0.00 0.00 0.00 23 1012.4
20260509195808 77 66 1.7 7.0 0.00 0.00 0.00 23 1012.5
20260509195302 77 47 0.9 7.0 0.00 0.00 0.00 22 1012.3
20260509194756 76 350 0.9 5.2 0.00 0.00 0.00 23 1012.3
20260509194249 76 81 1.7 6.1 0.00 0.00 0.00 23 1012.3
20260509193743 77 83 1.7 7.0 0.00 0.00 0.00 23 1012.3
20260509192226 76 46 1.7 7.0 0.00 0.00 0.00 24 1012.4
20260509191725 76 58 1.7 7.0 0.00 0.00 0.00 22 1012.5
20260509191256 76 73 0.9 6.1 0.00 0.00 0.00 23 1012.4
20260509190726 76 71 0.9 3.5 0.00 0.00 0.00 23 1012.5
20260509190225 76 294 0.9 5.2 0.00 0.00 0.00 23 1012.5
20260509184726 75 72 1.7 7.8 0.00 0.00 0.00 25 1012.6
20260509184224 75 53 1.7 9.6 0.00 0.00 0.00 25 1012.6
20260509183723 75 64 1.7 9.6 0.00 0.00 0.00 25 1012.7
20260509182723 75 199 1.7 7.8 0.00 0.00 0.00 25 1012.7
20260509181722 74 86 0.9 7.0 0.00 0.00 0.00 27 1012.7
20260509181220 74 77 1.7 7.8 0.00 0.00 0.00 26 1012.9
20260509180219 74 304 1.7 6.1 0.00 0.00 0.00 27 1012.7
20260509175718 74 45 1.7 6.1 0.00 0.00 0.00 26 1012.9
20260509175218 74 355 2.6 7.8 0.00 0.00 0.00 28 1012.9
20260509174717 73 77 2.6 7.8 0.00 0.00 0.00 27 1012.7
20260509174218 73 94 2.6 6.1 0.00 0.00 0.00 27 1012.9
20260509173218 73 30 1.7 7.8 0.00 0.00 0.00 28 1012.7
20260509172718 73 79 2.6 7.8 0.00 0.00 0.00 29 1012.7
20260509171717 73 117 3.5 11.3 0.00 0.00 0.00 30 1012.6
20260509171218 73 104 2.6 8.7 0.00 0.00 0.00 30 1012.7
20260509170719 73 95 2.6 8.7 0.00 0.00 0.00 30 1012.7
20260509165717 73 114 1.7 4.3 0.00 0.00 0.00 24 1012.6
20260509165218 73 346 2.6 7.0 0.00 0.00 0.00 24 1012.6
20260509164718 73 350 1.7 7.0 0.00 0.00 0.00 24 1012.6
20260509163720 72 0 0.0 1.7 0.00 0.00 0.00 26 1012.7
20260509163215 72 62 0.0 0.0 0.00 0.00 0.00 26 1012.6
20260509162708 71 57 0.0 0.0 0.00 0.00 0.00 25 1012.6
20260509161657 71 325 0.0 0.0 0.00 0.00 0.00 25 1012.6
20260509161150 70 325 0.0 0.0 0.00 0.00 0.00 27 1012.6
20260509160647 70 325 0.0 0.0 0.00 0.00 0.00 27 1012.6
20260509160146 69 325 0.0 0.0 0.00 0.00 0.00 27 1012.6
20260509155643 69 325 0.0 0.0 0.00 0.00 0.00 29 1012.5
20260509155143 69 325 0.0 0.0 0.00 0.00 0.00 29 1012.5
20260509154642 68 230 0.0 0.0 0.00 0.00 0.00 31 1012.5
20260509153639 67 229 0.0 0.0 0.00 0.00 0.00 32 1012.7
20260509151640 65 225 0.0 0.0 0.00 0.00 0.00 33 1013.0
20260509151137 65 223 0.0 0.0 0.00 0.00 0.00 35 1013.0
20260509150635 65 221 0.0 0.0 0.00 0.00 0.00 34 1013.0
20260509150135 64 213 0.0 0.0 0.00 0.00 0.00 37 1012.9
20260509145635 64 213 0.0 0.0 0.00 0.00 0.00 38 1013.0
20260509145136 63 212 0.0 0.0 0.00 0.00 0.00 41 1013.0
20260509144636 62 211 0.0 0.0 0.00 0.00 0.00 43 1013.0
20260509144135 61 211 0.0 0.0 0.00 0.00 0.00 46 1013.0
20260509143636 60 211 0.0 0.0 0.00 0.00 0.00 49 1013.0
20260509143137 60 211 0.0 0.0 0.00 0.00 0.00 54 1013.0
20260509142635 59 211 0.0 0.0 0.00 0.00 0.00 58 1012.9
20260509142136 57 211 0.0 0.0 0.00 0.00 0.00 60 1012.7
20260509141635 55 211 0.0 0.0 0.00 0.00 0.00 63 1012.9
20260509141136 55 211 0.0 0.0 0.00 0.00 0.00 63 1012.7
20260509140636 54 211 0.0 0.0 0.00 0.00 0.00 64 1012.9
20260509140135 54 211 0.0 0.0 0.00 0.00 0.00 64 1012.7
20260509135635 53 211 0.0 0.0 0.00 0.00 0.00 65 1012.9
20260509135135 53 211 0.0 0.0 0.00 0.00 0.00 64 1012.9
20260509134636 52 211 0.0 0.0 0.00 0.00 0.00 64 1012.6
20260509134128 52 211 0.0 0.0 0.00 0.00 0.00 64 1012.6
20260509133623 52 211 0.0 0.0 0.00 0.00 0.00 64 1012.6
20260509133116 51 211 0.0 0.0 0.00 0.00 0.00 64 1012.6
20260509132611 51 211 0.0 0.0 0.00 0.00 0.00 64 1012.6
20260509132103 51 211 0.0 0.0 0.00 0.00 0.00 64 1012.5
20260509131050 50 211 0.0 0.0 0.00 0.00 0.00 64 1012.3
20260509130544 50 211 0.0 0.0 0.00 0.00 0.00 64 1012.3
20260509130040 50 211 0.0 0.0 0.00 0.00 0.00 63 1012.0
20260509125534 50 211 0.0 0.0 0.00 0.00 0.00 63 1011.9
20260509125034 50 211 0.0 0.0 0.00 0.00 0.00 63 1011.8
20260509124531 49 211 0.0 0.0 0.00 0.00 0.00 63 1011.8
20260509123527 49 211 0.0 0.0 0.00 0.00 0.00 63 1011.7
20260509122523 49 211 0.0 0.0 0.00 0.00 0.00 64 1011.6
20260509122025 49 211 0.0 0.0 0.00 0.00 0.00 64 1011.6
20260509121521 49 211 0.0 0.0 0.00 0.00 0.00 64 1011.6
20260509121021 49 211 0.0 0.0 0.00 0.00 0.00 64 1011.6
20260509120521 49 211 0.0 0.0 0.00 0.00 0.00 64 1011.7
20260509120021 49 211 0.0 0.0 0.00 0.00 0.00 64 1011.5
20260509115521 49 211 0.0 0.0 0.00 0.00 0.00 64 1011.3
20260509115019 49 211 0.0 0.0 0.00 0.00 0.00 64 1011.2
20260509114519 49 211 0.0 0.0 0.00 0.00 0.00 64 1011.2
20260509114020 49 211 0.0 0.0 0.00 0.00 0.00 64 1011.1
20260509113519 49 211 0.0 0.0 0.00 0.00 0.00 65 1011.0
20260509113019 49 211 0.0 0.0 0.00 0.00 0.00 65 1011.1
20260509112517 49 211 0.0 0.0 0.00 0.00 0.00 65 1011.0
20260509112017 49 211 0.0 0.0 0.00 0.00 0.00 65 1011.0
20260509111510 49 211 0.0 0.0 0.00 0.00 0.00 66 1010.9
20260509111005 49 211 0.0 0.0 0.00 0.00 0.00 66 1010.9
20260509110459 49 211 0.0 0.0 0.00 0.00 0.00 66 1010.9
20260509104940 49 211 0.0 0.0 0.00 0.00 0.00 66 1010.8
20260509104434 49 211 0.0 0.0 0.00 0.00 0.00 66 1010.9
20260509103929 49 211 0.0 0.0 0.00 0.00 0.00 66 1010.9
20260509103423 50 211 0.0 0.0 0.00 0.00 0.00 66 1010.9
20260509102920 50 211 0.0 0.0 0.00 0.00 0.00 66 1010.9
20260509102410 50 211 0.0 0.0 0.00 0.00 0.00 66 1010.8
20260509101904 50 211 0.0 0.0 0.00 0.00 0.00 66 1010.8
20260509101359 50 211 0.0 0.0 0.00 0.00 0.00 65 1010.9
20260509100852 50 211 0.0 0.0 0.00 0.00 0.00 65 1011.0
20260509100348 50 211 0.0 0.0 0.00 0.00 0.00 65 1011.1
20260509095841 51 211 0.0 0.0 0.00 0.00 0.00 64 1011.1
20260509094830 51 211 0.0 0.0 0.00 0.00 0.00 64 1011.1
20260509093816 51 211 0.0 0.0 0.00 0.00 0.00 64 1010.9
20260509093310 51 211 0.0 0.0 0.00 0.00 0.00 64 1010.9
20260509092300 51 211 0.0 0.0 0.00 0.00 0.00 64 1010.9
20260509091753 52 211 0.0 0.0 0.00 0.00 0.00 64 1010.8
20260509091246 52 211 0.0 0.0 0.00 0.00 0.00 63 1010.6
20260509090740 52 211 0.0 0.0 0.00 0.00 0.00 63 1010.6
20260509090236 52 208 0.0 0.0 0.00 0.00 0.00 63 1010.6
20260509085728 52 208 0.0 0.0 0.00 0.00 0.00 63 1010.5
20260509084716 53 208 0.0 0.0 0.00 0.00 0.00 62 1010.6
20260509084210 53 208 0.0 0.0 0.00 0.00 0.00 61 1010.6
20260509083705 54 208 0.0 0.0 0.00 0.00 0.00 61 1010.6
20260509082654 54 208 0.0 0.0 0.00 0.00 0.00 60 1010.6
20260509082147 55 208 0.0 0.0 0.00 0.00 0.00 60 1010.6
20260509081640 55 208 0.0 0.0 0.00 0.00 0.00 60 1010.6
20260509081135 55 208 0.0 0.0 0.00 0.00 0.00 59 1010.5
20260509075617 55 208 0.0 0.0 0.00 0.00 0.00 59 1010.8
20260509075111 55 208 0.0 0.0 0.00 0.00 0.00 58 1010.8
20260509074605 56 208 0.0 0.0 0.00 0.00 0.00 58 1010.8
20260509074059 56 207 0.0 0.0 0.00 0.00 0.00 57 1010.9
20260509073553 56 207 0.0 0.0 0.00 0.00 0.00 57 1010.8
20260509073048 56 207 0.0 0.0 0.00 0.00 0.00 57 1010.8
20260509072540 56 207 0.0 0.0 0.00 0.00 0.00 58 1010.8
20260509072034 55 204 0.0 0.0 0.00 0.00 0.00 58 1010.8
20260509071528 55 204 0.0 0.0 0.00 0.00 0.00 58 1010.8
20260509071023 55 202 0.0 0.0 0.00 0.00 0.00 58 1010.9
20260509070021 55 139 0.0 0.0 0.00 0.00 0.00 59 1010.9
20260509065521 55 138 0.0 0.0 0.00 0.00 0.00 59 1011.0
20260509065023 55 138 0.0 0.0 0.00 0.00 0.00 59 1011.1
20260509064519 55 135 0.0 0.0 0.00 0.00 0.00 59 1011.1
20260509064017 55 135 0.0 0.0 0.00 0.00 0.00 59 1011.1
20260509063516 55 135 0.0 0.0 0.00 0.00 0.00 59 1011.2
20260509063017 55 68 0.0 0.0 0.00 0.00 0.00 59 1011.2
20260509062515 55 68 0.0 0.0 0.00 0.00 0.00 59 1011.2
20260509062014 55 67 0.0 0.0 0.00 0.00 0.00 59 1011.3
20260509061515 55 67 0.0 0.0 0.00 0.00 0.00 59 1011.5
20260509061012 55 67 0.0 0.0 0.00 0.00 0.00 58 1011.5
20260509060513 55 67 0.0 0.0 0.00 0.00 0.00 58 1011.6
20260509055505 55 67 0.0 0.0 0.00 0.00 0.00 58 1011.6
20260509054959 55 67 0.0 0.0 0.00 0.00 0.00 58 1011.6
20260509054454 55 67 0.0 0.0 0.00 0.00 0.00 58 1011.7
20260509053947 55 67 0.0 0.0 0.00 0.00 0.00 58 1011.8
20260509052934 56 67 0.0 0.0 0.00 0.00 0.00 58 1011.8
20260509051924 56 67 0.0 0.0 0.00 0.00 0.00 58 1012.0
20260509051416 56 67 0.0 0.0 0.00 0.00 0.00 58 1012.2
20260509050911 56 67 0.0 0.0 0.00 0.00 0.00 58 1012.2
20260509050405 56 67 0.0 0.0 0.00 0.00 0.00 58 1012.3
20260509045405 56 67 0.0 0.0 0.00 0.00 0.00 57 1012.3
20260509043902 57 67 0.0 0.0 0.00 0.00 0.00 55 1012.6
20260509043403 57 67 0.0 0.0 0.00 0.00 0.00 54 1012.7
20260509042903 58 67 0.0 0.0 0.00 0.00 0.00 54 1012.9
20260509042358 58 67 0.0 0.0 0.00 0.00 0.00 54 1012.9
20260509041859 58 67 0.0 0.0 0.00 0.00 0.00 53 1013.0
20260509041359 58 67 0.0 0.0 0.00 0.00 0.00 53 1013.0
20260509040858 58 67 0.0 0.0 0.00 0.00 0.00 52 1013.0
20260509040358 59 67 0.0 0.0 0.00 0.00 0.00 52 1013.0
20260509035900 59 67 0.0 0.0 0.00 0.00 0.00 51 1013.1
20260509034856 59 67 0.0 0.0 0.00 0.00 0.00 49 1013.1
20260509034356 60 67 0.0 0.0 0.00 0.00 0.00 49 1013.1
20260509033858 60 67 0.0 0.0 0.00 0.00 0.00 48 1013.1
20260509033359 60 67 0.0 0.0 0.00 0.00 0.00 48 1013.1
20260509031841 61 66 0.0 0.0 0.00 0.00 0.00 46 1013.0
20260509031335 61 66 0.0 0.0 0.00 0.00 0.00 46 1013.0
20260509030829 61 66 0.0 0.0 0.00 0.00 0.00 46 1013.0
20260509030325 62 66 0.0 0.0 0.00 0.00 0.00 45 1013.0
20260509025817 62 66 0.0 0.0 0.00 0.00 0.00 45 1012.9
20260509025312 62 66 0.0 0.0 0.00 0.00 0.00 44 1012.7
20260509024301 62 66 0.0 0.0 0.00 0.00 0.00 43 1012.7
20260509023800 63 66 0.0 0.0 0.00 0.00 0.00 43 1012.7
20260509023259 63 66 0.0 0.0 0.00 0.00 0.00 42 1012.6
20260509022259 64 65 0.0 0.0 0.00 0.00 0.00 42 1012.5
20260509021759 64 66 0.0 0.0 0.00 0.00 0.00 42 1012.5
20260509020757 65 65 0.0 0.0 0.00 0.00 0.00 41 1012.4
20260509020254 65 65 0.0 0.0 0.00 0.00 0.00 40 1012.4
20260509015251 65 65 0.0 0.0 0.00 0.00 0.00 39 1012.3
20260509014750 66 65 0.0 0.0 0.00 0.00 0.00 39 1012.3
20260509014249 66 65 0.0 0.0 0.00 0.00 0.00 39 1012.3
20260509013747 66 67 0.0 0.0 0.00 0.00 0.00 39 1012.3
20260509013245 67 67 0.0 0.0 0.00 0.00 0.00 38 1012.2
20260509012745 67 67 0.0 0.0 0.00 0.00 0.00 37 1012.2
20260509012244 67 64 0.0 0.0 0.00 0.00 0.00 38 1012.2
20260509011741 67 65 0.0 0.0 0.00 0.00 0.00 37 1012.2
20260509011240 67 65 0.0 0.0 0.00 0.00 0.00 38 1012.2
20260509010740 67 65 0.0 0.0 0.00 0.00 0.00 37 1012.2
20260509010241 68 65 0.0 0.0 0.00 0.00 0.00 37 1012.2
20260509005740 68 65 0.0 0.0 0.00 0.00 0.00 37 1012.0
20260509005244 68 64 0.0 0.0 0.00 0.00 0.00 37 1012.2
20260509004743 68 63 0.0 0.0 0.00 0.00 0.00 36 1012.0
20260509003743 69 63 0.0 0.0 0.00 0.00 0.00 36 1012.0
20260509003241 69 63 0.0 0.0 0.00 0.00 0.00 36 1012.0
20260509002240 69 61 0.0 0.0 0.00 0.00 0.00 34 1012.0
20260509001740 70 61 0.0 0.0 0.00 0.00 0.00 35 1012.0
20260509000741 71 59 0.0 0.0 0.00 0.00 0.00 34 1012.0
20260508235740 71 58 0.0 1.7 0.00 0.00 0.00 34 1012.2
20260508235240 71 58 0.9 2.6 0.00 0.00 0.00 34 1012.2
20260508234741 71 59 0.9 3.5 0.00 0.00 0.00 33 1012.2
20260508234240 71 61 0.9 4.3 0.00 0.00 0.00 33 1012.3
20260508233740 71 49 0.9 4.3 0.00 0.00 0.00 35 1012.3
20260508233240 71 79 0.9 3.5 0.00 0.00 0.00 34 1012.3
20260508232741 71 88 0.9 2.6 0.00 0.00 0.00 34 1012.3
20260508232240 72 88 0.9 2.6 0.00 0.00 0.00 35 1012.3
20260508231741 72 88 0.9 2.6 0.00 0.00 0.00 34 1012.2
20260508231238 73 89 0.9 5.2 0.00 0.00 0.00 34 1012.3